Location: Stoke Bliss
(52.2667°N, 2.5167°W)
Time: 11:59:16
(UTC+00:00)

Envisat - Pass Details

Date: 04 December 2021
Orbit: 764 x 766 km, 98.2° (Epoch: 23 January)

Event Time Altitude Azimuth Distance (km) Brightness Sun altitude
Rises 07:08:56 0° 5° (N) 3,248 6.0 -7.6°
Reaches altitude 10° 07:11:55 10° 347° (NNW) 2,317 5.1 -7.2°
Maximum altitude 07:15:14 18° 306° (NW) 1,829 4.3 -6.8°
Drops below altitude 10° 07:18:33 10° 265° (W) 2,307 5.0 -6.3°
Sets 07:21:31 0° 247° (WSW) 3,229 5.9 -5.9°
